{"data":{"norad_id":63500,"intl_designator":"2025-071H","name":"STARLINK-33838","alt_names":[],"object_type":"PAYLOAD","status":"ACTIVE","operator":null,"country":"US","launch_date":"2025-04-07","launch_site_code":"AFWTR","launch_vehicle":null,"mission":null,"orbit_class":"UNKNOWN","rcs_meters":null,"size_class":null,"mass_kg":null,"dimensions":null,"purposes":["comms"],"wikipedia_slug":null,"has_3d_model":false,"image_url":null,"decayed_at":null,"tle_current":{"epoch":"2026-09-20T10:51:44.988192Z","epoch_age_seconds":159809,"freshness":"FRESH","line1":"1 63500U 25071H   26263.45260403  .00017749  00000+0  54997-3 0  9996","line2":"2 63500  53.1625 313.5274 0002434  61.8814 298.2435 15.33533973 82403","mean_motion":15.33533973,"eccentricity":0.0002434,"inclination_deg":53.1625,"raan_deg":313.5274,"arg_perigee_deg":61.8814,"mean_anomaly_deg":298.2435,"bstar":0.00054997,"rev_number":8240,"period_min":93.90075638057,"perigee_km":463.61277890245,"apogee_km":466.94415355141,"semimajor_km":6843.4154662269,"source":"CELESTRAK","updated_at":"2026-09-21T09:00:35.014471Z"}}}